User: anonymous   Login
Location: Unspecified
(0.0000°N, 0.0000°E)
Time: 18:56:50
(UTC+00:00)
Language:

DICE 1 - Orbit

View from above orbital plane
View from above orbital plane
View from above satellite
View from above satellite

Ground track
Ground track

The orbit data is extracted from the following two-line orbital elements,

1 37851U 11061B   18351.18633826  .00000842  00000-0  52122-4 0  9998
2 37851 101.7425 141.8886 0183773 280.6195  77.4365 15.02892920388810
Epoch (UTC): 17 December 2018 04:28:19
Eccentricity: 0.0183773
inclination: 101.7425°
perigee height: 430 km
apogee height: 685 km
right ascension of ascending node: 141.8886°
argument of perigee: 280.6195°
revolutions per day: 15.02892920
mean anomaly at epoch: 77.4365°
orbit number at epoch: 38881

The dashed part of the orbit path shows where the satellite is in the earth's shadow,  

DLR